Montpelier, VT

10:22 PM EST on November 16, 2019 (GMT -0500)
Knapp State

Weather History for KMPV - September, 2019

Change the Weather History Date:

Monday, September 16, 2019

  Actual Average Record
Temperature  
Mean Temperature 56 °F 57 °F  
Max Temperature 64 °F 69 °F 84 °F (1991)
Min Temperature 47 °F 46 °F 25 °F (1964)
Degree Days  
Heating Degree Days 10 8  
Month to date heating degree days 119 93  
Since 1 July heating degree days 187 201  
Cooling Degree Days 0 1  
Month to date cooling degree days 5 16  
Year to date cooling degree days 216 260  
Growing Degree Days 6 (Base 50)    
Moisture  
Dew Point 45 °F    
Average Humidity 72    
Maximum Humidity 93    
Minimum Humidity 48    
Precipitation  
Precipitation 0.00 in 0.10 in 3.13 in (1999)
Month to date precipitation 1.42 1.50  
Year to date precipitation 36.22 26.30  
Sea Level Pressure  
Sea Level Pressure 30.13 in    
Wind  
Wind Speed 5 mph ()    
Max Wind Speed 16 mph    
Max Gust Speed 24 mph    
Visibility 10.0 miles    
Events      
T = Trace of Precipitation, MM = Missing Value Source: Averaged Metar Reports

Daily Weather History Graph

Daily Weather History Graph

Search for Another Location

Airport or City:

Astronomy

Sep. 16, 2019 Rise Set
Actual Time 6:30 AM EDT 6:59 PM EDT
Civil Twilight 6:01 AM EDT 7:28 PM EDT
Nautical Twilight 5:26 AM EDT 8:02 PM EDT
Astronomical Twilight 4:51 AM EDT 8:37 PM EDT
Moon 8:28 PM EDT (9/16) 8:37 AM EDT (9/16)
Length of Visible Light 13h 27m
Length of Day
12h 29m
Waning Gibbous, 94% of the Moon is Illuminated
Sep 16
Waning Gibbous
Sep 21
Last Quarter
Sep 28
New
Oct 5
First Quarter
Oct 13
Full

Hourly Weather History & Observations

Time (EDT) Temp. Dew Point Humidity Pressure Visibility Wind Dir Wind Speed Gust Speed Precip Events Conditions
12:51 AM 48.9 °F 46.0 °F 90% 30.13 in 10.0 mi Calm Calm - N/A   Clear
1:51 AM 51.1 °F 46.9 °F 86% 30.12 in 10.0 mi NW 8.1 mph - N/A   Mostly Cloudy
2:51 AM 52.0 °F 45.0 °F 77% 30.12 in 10.0 mi West 5.8 mph - N/A   Clear
3:51 AM 51.1 °F 45.0 °F 80% 30.12 in 10.0 mi NW 9.2 mph - N/A   Clear
4:51 AM 48.9 °F 45.0 °F 86% 30.13 in 10.0 mi NW 4.6 mph - N/A   Clear
5:51 AM 50.0 °F 45.0 °F 83% 30.14 in 10.0 mi WNW 5.8 mph - N/A   Clear
6:51 AM 48.9 °F 45.0 °F 86% 30.16 in 10.0 mi West 4.6 mph - N/A   Clear
7:51 AM 50.0 °F 46.0 °F 86% 30.16 in 10.0 mi NW 5.8 mph - N/A   Clear
8:51 AM 53.1 °F 46.0 °F 77% 30.16 in 10.0 mi NW 4.6 mph - N/A   Clear
9:51 AM 55.0 °F 46.0 °F 72% 30.16 in 10.0 mi NW 8.1 mph - N/A   Clear
10:51 AM 57.9 °F 46.0 °F 65% 30.14 in 10.0 mi NNW 8.1 mph - N/A   Scattered Clouds
11:51 AM 59.0 °F 46.0 °F 62% 30.14 in 10.0 mi NW 10.4 mph - N/A   Mostly Cloudy
12:51 PM 61.0 °F 46.0 °F 58% 30.12 in 10.0 mi NNW 11.5 mph - N/A   Mostly Cloudy
1:51 PM 63.0 °F 44.1 °F 50% 30.10 in 10.0 mi NNW 9.2 mph 18.4 mph N/A   Partly Cloudy
2:51 PM 63.0 °F 44.1 °F 50% 30.09 in 10.0 mi WNW 9.2 mph 20.7 mph N/A   Scattered Clouds
3:51 PM 62.1 °F 43.0 °F 50% 30.09 in 10.0 mi NW 12.7 mph - N/A   Partly Cloudy
4:51 PM 63.0 °F 44.1 °F 50% 30.10 in 10.0 mi NNW 10.4 mph 18.4 mph N/A   Mostly Cloudy
5:51 PM 60.1 °F 44.1 °F 55% 30.11 in 10.0 mi NW 10.4 mph - N/A   Clear
6:51 PM 57.0 °F 44.1 °F 62% 30.12 in 10.0 mi WNW 5.8 mph - N/A   Partly Cloudy
7:51 PM 52.0 °F 46.0 °F 80% 30.13 in 10.0 mi WSW 3.5 mph - N/A   Clear
8:51 PM 48.9 °F 45.0 °F 86% 30.14 in 10.0 mi Calm Calm - N/A   Clear
9:51 PM 48.9 °F 45.0 °F 86% 30.14 in 10.0 mi Calm Calm - N/A   Clear
10:51 PM 51.1 °F 45.0 °F 80% 30.14 in 10.0 mi NW 4.6 mph - N/A   Clear
11:51 PM 53.1 °F 45.0 °F 74% 30.14 in 10.0 mi NW 6.9 mph - N/A   Clear